{"data":{"norad_id":52357,"intl_designator":"2022-045AC","name":"STARLINK-3821","alt_names":[],"object_type":"PAYLOAD","status":"ACTIVE","operator":null,"country":"US","launch_date":"2022-04-29","launch_site_code":"AFETR","launch_vehicle":null,"mission":null,"orbit_class":"UNKNOWN","rcs_meters":null,"size_class":null,"mass_kg":null,"dimensions":null,"purposes":["comms"],"wikipedia_slug":null,"has_3d_model":false,"image_url":null,"decayed_at":null,"tle_current":{"epoch":"2026-05-24T14:13:28.260480Z","epoch_age_seconds":113535,"freshness":"FRESH","line1":"1 52357U 22045AC  26144.59268820 -.00000005  00000+0  17770-4 0  9993","line2":"2 52357  53.2150 218.3796 0001109  86.5712 273.5407 15.08837904227246","mean_motion":15.08837904,"eccentricity":0.0001109,"inclination_deg":53.215,"raan_deg":218.3796,"arg_perigee_deg":86.5712,"mean_anomaly_deg":273.5407,"bstar":1.777e-5,"rev_number":22724,"period_min":95.437687254707,"perigee_km":538.98260195937,"apogee_km":540.51698925063,"semimajor_km":6917.886795605,"source":"CELESTRAK","updated_at":"2026-05-25T13:38:17.117778Z"}}}